Weather History for Edinburgh Airport, United Kingdom

Change the Weather History Date:

Wednesday, October 24, 2012

  Actual Average Record
Temperature  
Mean Temperature 46 °F -  
Max Temperature 50 °F 50 °F 62 °F (1996)
Min Temperature 41 °F 37 °F 28 °F (2007)
Degree Days  
Heating Degree Days 20    
Moisture  
Dew Point 46 °F    
Average Humidity 93    
Maximum Humidity 100    
Minimum Humidity 82    
Precipitation  
Precipitation 0.00 in 0.08 in - ()
Sea Level Pressure  
Sea Level Pressure 30.31 in    
Wind  
Wind Speed 6 mph ()    
Max Wind Speed 12 mph    
Max Gust Speed -    
Visibility 5.8 miles    
Events Fog    
Averages and records for this station are not official NWS values.
T = Trace of Precipitation, MM = Missing Value Source: Averaged Metar Reports

Daily Weather History Graph

Daily Weather History Graph

Search for Another Location

Airport:

Trip Planner

Search our weather history database for the weather conditions in past years. The results will help you decide how hot, cold, wet, or windy it might be!

Date:

Astronomy

Oct. 24, 2012 Rise Set
Actual Time 8:03 AM BST 5:50 PM BST
Civil Twilight 7:25 AM BST 6:28 PM BST
Nautical Twilight 6:42 AM BST 7:11 PM BST
Astronomical Twilight 5:59 AM BST 7:54 PM BST
Moon 3:44 PM BST (10/24) 1:50 AM BST (10/24)
Length of Visible Light 11h 03m
Length of Day
9h 46m
Waxing Gibbous, 74% of the Moon is Illuminated
Oct 24
Waxing Gibbous
Oct 29
Full
Nov 7
Last Quarter
Nov 13
New
Nov 20
First Quarter

Hourly Weather History & Observations

Time (BST) Temp. Windchill Dew Point Humidity Pressure Visibility Wind Dir Wind Speed Gust Speed Precip Events Conditions
12:20 AM 50.0 °F - 50.0 °F 100% 30.39 in 4.3 mi ENE 9.2 mph - N/A   Light Drizzle
12:50 AM 50.0 °F - 50.0 °F 100% 30.39 in 6.2 mi ENE 8.1 mph - N/A   Light Drizzle
1:20 AM 50.0 °F - 50.0 °F 100% 30.39 in 6.2 mi ENE 8.1 mph - N/A   Mostly Cloudy
1:50 AM 50.0 °F - 50.0 °F 100% 30.36 in 6.2 mi ENE 8.1 mph - N/A   Mostly Cloudy
2:20 AM 50.0 °F - 50.0 °F 100% 30.36 in 6.2 mi ENE 6.9 mph - N/A   Mostly Cloudy
2:50 AM 50.0 °F - 50.0 °F 100% 30.36 in 6.2 mi ENE 5.8 mph - N/A   Overcast
3:20 AM 50.0 °F - 50.0 °F 100% 30.36 in 6.2 mi ENE 4.6 mph - N/A   Overcast
3:50 AM 50.0 °F - 50.0 °F 100% 30.36 in 6.2 mi NE 5.8 mph - N/A   Mostly Cloudy
4:20 AM 50.0 °F - 50.0 °F 100% 30.36 in 6.2 mi NE 5.8 mph - N/A   Overcast
4:50 AM 50.0 °F - 48.2 °F 94% 30.33 in 6.2 mi NE 4.6 mph - N/A   Overcast
5:20 AM 50.0 °F - 48.2 °F 94% 30.33 in 6.2 mi NE 4.6 mph - N/A   Light Drizzle
5:50 AM 50.0 °F - 48.2 °F 94% 30.33 in 5.0 mi NE 4.6 mph - N/A   Light Drizzle
6:20 AM 50.0 °F - 48.2 °F 94% 30.33 in 6.2 mi ENE 6.9 mph - N/A   Light Drizzle
6:50 AM 50.0 °F - 48.2 °F 94% 30.33 in 6.2 mi ENE 4.6 mph - N/A   Overcast
7:20 AM 50.0 °F - 48.2 °F 94% 30.33 in 6.2 mi NE 4.6 mph - N/A   Overcast
7:50 AM 48.2 °F - 48.2 °F 100% 30.33 in 6.2 mi NE 3.5 mph - N/A   Overcast
8:20 AM 48.2 °F - 48.2 °F 100% 30.33 in 6.2 mi NE 4.6 mph - N/A   Mostly Cloudy
8:50 AM 48.2 °F - 48.2 °F 100% 30.33 in 6.2 mi NE 4.6 mph - N/A   Mostly Cloudy
9:20 AM 50.0 °F - 48.2 °F 94% 30.33 in 6.2 mi NE 5.8 mph - N/A   Mostly Cloudy
9:50 AM 50.0 °F - 46.4 °F 87% 30.33 in 6.2 mi ENE 5.8 mph - N/A   Mostly Cloudy
10:20 AM 50.0 °F - 46.4 °F 87% 30.33 in 6.2 mi ENE 4.6 mph - N/A   Mostly Cloudy
10:50 AM 50.0 °F - 46.4 °F 87% 30.33 in 6.2 mi ENE 9.2 mph - N/A   Mostly Cloudy
11:20 AM 50.0 °F - 46.4 °F 87% 30.33 in 6.2 mi ENE 11.5 mph - N/A   Mostly Cloudy
11:50 AM 50.0 °F - 46.4 °F 87% 30.33 in 6.2 mi ENE 10.4 mph - N/A   Mostly Cloudy
12:20 PM 50.0 °F - 46.4 °F 87% 30.33 in 6.2 mi East 8.1 mph - N/A   Mostly Cloudy
12:50 PM 50.0 °F - 46.4 °F 87% 30.33 in 6.2 mi ENE 10.4 mph - N/A   Mostly Cloudy
1:20 PM 50.0 °F - 46.4 °F 87% 30.33 in 6.2 mi East 11.5 mph - N/A   Scattered Clouds
1:50 PM 50.0 °F - 44.6 °F 82% 30.33 in 6.2 mi East 11.5 mph - N/A   Mostly Cloudy
2:20 PM 50.0 °F - 44.6 °F 82% 30.33 in 6.2 mi ENE 10.4 mph - N/A   Mostly Cloudy
2:50 PM 48.2 °F - 44.6 °F 87% 30.30 in 6.2 mi East 8.1 mph - N/A   Mostly Cloudy
3:20 PM 50.0 °F - 44.6 °F 82% 30.30 in 6.2 mi ENE 5.8 mph - N/A   Partly Cloudy
3:50 PM 50.0 °F - 44.6 °F 82% 30.30 in 6.2 mi NE 4.6 mph - N/A   Partly Cloudy
4:20 PM 50.0 °F - 44.6 °F 82% 30.27 in 6.2 mi Variable 3.5 mph - N/A   Partly Cloudy
4:50 PM 50.0 °F - 44.6 °F 82% 30.27 in - NE 4.6 mph - N/A   Clear
5:20 PM 48.2 °F - 44.6 °F 87% 30.27 in - NNE 4.6 mph - N/A   Clear
5:50 PM 46.4 °F 44.3 °F 42.8 °F 87% 30.27 in - NNE 4.6 mph - N/A   Clear
6:20 PM 44.6 °F 42.2 °F 42.8 °F 93% 30.27 in - NE 4.6 mph - N/A   Clear
6:50 PM 42.8 °F 40.1 °F 41.0 °F 93% 30.27 in 6.2 mi NE 4.6 mph - N/A Fog Shallow Fog
7:20 PM 41.0 °F - 41.0 °F 100% 30.27 in 6.2 mi East 2.3 mph - N/A Fog Shallow Fog
7:50 PM 41.0 °F 39.0 °F 41.0 °F 100% 30.27 in 6.2 mi SSE 3.5 mph - N/A Fog Shallow Fog
8:20 PM 42.8 °F - 42.8 °F 100% 30.27 in 6.2 mi Variable 2.3 mph - N/A Fog Shallow Fog
8:50 PM 42.8 °F - 42.8 °F 100% 30.27 in 6.2 mi Calm Calm - N/A Fog Shallow Fog
9:20 PM 42.8 °F - 42.8 °F 100% 30.27 in 5.0 mi West 2.3 mph - N/A   Mostly Cloudy
9:50 PM 42.8 °F - 42.8 °F 100% 30.27 in 4.3 mi Calm Calm - N/A   Mostly Cloudy
10:20 PM 42.8 °F - 42.8 °F 100% 30.24 in 3.1 mi Variable 2.3 mph - N/A   Overcast
10:50 PM 44.6 °F - 42.8 °F 93% 30.24 in 3.1 mi Calm Calm - N/A   Overcast
11:20 PM 44.6 °F 43.1 °F 44.6 °F 100% 30.24 in 3.1 mi Variable 3.5 mph - N/A   Overcast
11:50 PM 44.6 °F - 44.6 °F 100% 30.24 in 3.1 mi Variable 2.3 mph - N/A   Overcast